Regional Weather Roundup
Issued by NWS

Home | Current Version | Previous Version | Graphics & Text | Print | Product List | Glossary On
Versions: 1 2 3 4 5 6 7 8 9 10 11 12 13 14 15 16 17 18 19 20 21 22 23 24 25 26 27 28 29 30 31 32 33 34 35 36 37 38 39 40 41 42 43 44 45 46 47 48 49 50
000
ASUS43 KOAX 230002
RWRNE

WEATHER ROUNDUP FOR NEBRASKA
NATIONAL WEATHER SERVICE OMAHA NE
700 PM CDT SUN OCT 22 2017

NOTES: SATELLITE DATA IS BEING USED TO AUGMENT CLOUD COVER ABOVE
       12000 FEET.
       "FAIR" INDICATES FEW OR NO CLOUDS BELOW 12,000 FEET WITH NO
       SIGNIFICANT WEATHER AND/OR OBSTRUCTIONS TO VISIBILITY.


NEZ001>004-019>022-054>056-230100-
NEBRASKA PANHANDLE

CITY           SKY/WX    TMP DP  RH WIND       PRES   REMARKS
SCOTTSBLUFF    CLOUDY    64  29  26 W25G36    29.97F
6HR MIN TEMP:  64; 6HR MAX TEMP:  70;

ALLIANCE       CLOUDY    56  29  35 SW8       29.96F
6HR MIN TEMP:  56; 6HR MAX TEMP:  70;

CHADRON        CLOUDY    67  26  21 NW12      29.90S
6HR MIN TEMP:  67; 6HR MAX TEMP:  73;

GORDON         FAIR      63  31  30 W10       29.91S
6HR MIN TEMP:  62; 6HR MAX TEMP:  71;

KIMBALL        CLOUDY    58  27  30 W8        30.05S
SIDNEY         CLOUDY    59  28  30 NW8       30.03S
6HR MIN TEMP:  59; 6HR MAX TEMP:  73;

$$

NEZ057>060-069>072-079>082-230100-
SOUTHWEST NEBRASKA

CITY           SKY/WX    TMP DP  RH WIND       PRES   REMARKS
NORTH PLATTE   CLOUDY    61  35  37 SW6       29.96R
6HR MIN TEMP:  61; 6HR MAX TEMP:  72;

IMPERIAL       CLOUDY    62  27  26 W7        30.00S
6HR MIN TEMP:  62; 6HR MAX TEMP:  73;

LEXINGTON      CLOUDY    62  29  28 SW7       29.97S
MCCOOK         PTCLDY    63  26  24 SW8       29.98F
6HR MIN TEMP:  63; 6HR MAX TEMP:  73;

OGALLALA       CLOUDY    61  35  37 NW9       29.99R
$$

NEZ005>010-023>029-035>040-094-230100-
NORTH CENTRAL NEBRASKA

CITY           SKY/WX    TMP DP  RH WIND       PRES   REMARKS
VALENTINE      CLEAR     59  32  36 S3        29.89S
6HR MIN TEMP:  59; 6HR MAX TEMP:  72;

AINSWORTH      CLEAR     55  36  48 S3        29.90F
BROKEN BOW     CLOUDY    56  36  47 CALM      29.94S
6HR MIN TEMP:  56; 6HR MAX TEMP:  69;

O`NEILL        CLOUDY    58  36  44 S7        29.92R
ORD            PTCLDY    57  32  38 S7        29.92F
6HR MIN TEMP:  56; 6HR MAX TEMP:  69;

THEDFORD       CLOUDY    61  33  35 SW7       29.94R
$$

NEZ041-046>049-061>064-073>077-083>087-230100-
SOUTH CENTRAL NEBRASKA

CITY           SKY/WX    TMP DP  RH WIND       PRES   REMARKS
GRAND ISLAND   CLOUDY    59  32  36 S8        29.98F
6HR MIN TEMP:  59; 6HR MAX TEMP:  70;

AURORA         CLEAR     61  30  30 S3        29.99F
HASTINGS       CLEAR     61  27  27 S6        30.00F
6HR MIN TEMP:  61; 6HR MAX TEMP:  69;

HEBRON         CLEAR     59  31  34 S7        30.03S
HOLDREGE       CLEAR     60  29  30 S8        29.98F
KEARNEY        CLEAR     59  27  29 S10       29.99S
YORK           CLEAR     61  28  29 CALM      29.99F
$$

NEZ011>018-030>034-042>045-230100-
NORTHEAST NEBRASKA

CITY           SKY/WX    TMP DP  RH WIND       PRES   REMARKS
NORFOLK        CLEAR     57  30  35 S9        29.94F
6HR MIN TEMP:  56; 6HR MAX TEMP:  69;

ALBION         CLEAR     56  32  39 CALM      29.96S
BLAIR          CLEAR     59  32  36 S6        29.99S
COLUMBUS       CLEAR     58  32  37 S6        29.98S
FREMONT        CLEAR     60  29  30 S5        29.99S
TEKAMAH        CLEAR     57  29  34 S8        29.97S
6HR MIN TEMP:  56; 6HR MAX TEMP:  71;

WAYNE          CLEAR     52  28  38 S7        29.94F
$$

NEZ050>053-065>068-078-088>093-230100-
SOUTHEAST NEBRASKA

CITY           SKY/WX    TMP DP  RH WIND       PRES   REMARKS
LINCOLN        CLEAR     56  34  43 S6        30.01F
6HR MIN TEMP:  56; 6HR MAX TEMP:  71;

OMAHA EPPLEY   PTCLDY    59  33  37 S8        30.00F
6HR MIN TEMP:  59; 6HR MAX TEMP:  69;

BEATRICE       CLEAR     58  33  38 S7        30.03S
FALLS CITY     CLEAR     60  33  36 S7        30.05S
6HR MIN TEMP:  60; 6HR MAX TEMP:  69;

NEBRASKA CITY  CLEAR     55  36  48 S7        30.04S
PLATTSMOUTH    CLEAR     61  32  32 S7        30.02F
$$

NEZ044-045-051>053-067-230100-
OMAHA AREA

CITY           SKY/WX    TMP DP  RH WIND       PRES   REMARKS
OMAHA EPPLEY   PTCLDY    59  33  37 S8        30.00F
6HR MIN TEMP:  59; 6HR MAX TEMP:  69;

BLAIR          CLEAR     59  32  36 S6        29.99S
FREMONT        CLEAR     60  29  30 S5        29.99S
MILLARD        CLEAR     62  33  33 SE3       30.00F
OFFUTT AFB     CLEAR     59  34  38 SE7       30.00F
PLATTSMOUTH    CLEAR     61  32  32 S7        30.02F
WAHOO          FAIR      57  28  32 S7        29.99S
$$




USA.gov is the U.S. government's official web portal to all federal, state and local government web resources and services.